FW9086 Weather Reports


Display with metric or nautical units.
time (UTC)temp
F
wind
direction
speed
MPH
gust
MPH
rain 1hr
in
rain 24hr
in
rain mn
in
humidity
%
barometer
mb
20260901172401 91 227 1.0 1.0 0.00 0.00 0.00 64 1015.3
20260901171859 92 273 3.0 5.0 0.00 0.00 0.00 62 1015.5
20260901171358 92 248 1.0 2.0 0.00 0.00 0.00 62 1015.6
20260901170857 92 141 0.0 1.0 0.00 0.00 0.00 69 1015.3
20260901170352 91 227 3.0 3.0 0.00 0.00 0.00 66 1015.5
20260901165852 91 183 1.0 1.0 0.00 0.00 0.00 65 1015.3
20260901165346 91 174 1.0 1.0 0.00 0.00 0.00 70 1015.3
20260901164843 90 188 0.0 1.0 0.00 0.00 0.00 68 1015.6
20260901164338 91 249 3.0 3.0 0.00 0.00 0.00 64 1015.6
20260901163837 90 242 2.0 2.0 0.00 0.00 0.00 68 1015.7
20260901163333 90 240 2.0 2.0 0.00 0.00 0.00 65 1015.8
20260901162828 89 241 2.0 2.0 0.00 0.00 0.00 65 1015.8
20260901162327 89 245 2.0 3.0 0.00 0.00 0.00 68 1015.6
20260901161826 89 196 1.0 1.0 0.00 0.00 0.00 69 1015.6
20260901161321 89 196 1.0 1.0 0.00 0.00 0.00 70 1015.8
20260901160816 89 174 0.0 1.0 0.00 0.00 0.00 70 1015.9
20260901160312 88 164 0.0 1.0 0.00 0.00 0.00 69 1015.8
20260901155811 88 250 3.0 3.0 0.00 0.00 0.00 68 1015.8
20260901155306 88 229 2.0 2.0 0.00 0.00 0.00 71 1015.8
20260901154803 88 193 2.0 2.0 0.00 0.00 0.00 72 1015.7
20260901154256 88 197 1.0 2.0 0.00 0.00 0.00 72 1015.6
20260901153751 87 164 0.0 1.0 0.00 0.00 0.00 70 1015.7
20260901153251 87 261 2.0 2.0 0.00 0.00 0.00 71 1015.9
20260901152750 87 189 0.0 1.0 0.00 0.00 0.00 73 1016.1
20260901152249 88 181 1.0 1.0 0.00 0.00 0.00 71 1015.9
20260901151744 87 197 1.0 1.0 0.00 0.00 0.00 73 1015.9
20260901151244 86 230 2.0 2.0 0.00 0.00 0.00 73 1015.7
20260901150744 86 213 1.0 1.0 0.00 0.00 0.00 74 1015.9
20260901150242 85 163 0.0 1.0 0.00 0.00 0.00 77 1015.7
20260901145740 85 173 0.0 1.0 0.00 0.00 0.00 76 1016.0
20260901145240 85 228 1.0 2.0 0.00 0.00 0.00 77 1016.0
20260901144735 84 192 1.0 2.0 0.00 0.00 0.00 76 1015.9
20260901144231 84 201 1.0 1.0 0.00 0.00 0.00 77 1016.0
20260901143726 83 221 1.0 1.0 0.00 0.00 0.00 78 1015.9
20260901143222 82 207 1.0 2.0 0.00 0.00 0.00 79 1015.7
20260901142718 82 203 1.0 2.0 0.00 0.00 0.00 80 1016.1
20260901142217 81 206 2.0 2.0 0.00 0.00 0.00 81 1016.0
20260901141713 81 193 2.0 2.0 0.00 0.00 0.00 83 1016.0
20260901141207 80 253 2.0 2.0 0.00 0.00 0.00 82 1015.9
20260901140706 80 194 1.0 2.0 0.00 0.00 0.00 83 1016.0
20260901140204 79 211 2.0 2.0 0.00 0.00 0.00 84 1016.1
20260901135700 79 240 2.0 2.0 0.00 0.00 0.00 85 1016.0
20260901135154 79 234 1.0 2.0 0.00 0.00 0.00 86 1016.0
20260901134650 79 218 2.0 2.0 0.00 0.00 0.00 86 1016.0
20260901134145 78 237 2.0 2.0 0.00 0.00 0.00 86 1015.8
20260901133644 78 206 1.0 1.0 0.00 0.00 0.00 86 1016.1
20260901133143 78 197 1.0 1.0 0.00 0.00 0.00 87 1016.0
20260901132638 77 188 0.0 0.0 0.00 0.00 0.00 88 1016.2
20260901132138 77 207 0.0 0.0 0.00 0.00 0.00 90 1016.4
20260901131638 77 192 0.0 0.0 0.00 0.00 0.00 90 1016.1
20260901131132 76 188 0.0 0.0 0.00 0.00 0.00 90 1016.5
20260901130627 76 211 0.0 0.0 0.00 0.00 0.00 91 1016.4
20260901130126 76 190 0.0 0.0 0.00 0.00 0.00 91 1016.2
20260901125624 76 194 0.0 0.0 0.00 0.00 0.00 91 1016.1
20260901125119 76 190 0.0 0.0 0.00 0.00 0.00 91 1016.4
20260901124614 75 187 0.0 0.0 0.00 0.00 0.00 92 1016.1
20260901124109 75 191 0.0 0.0 0.00 0.00 0.00 92 1016.1
20260901123609 75 187 0.0 0.0 0.00 0.00 0.00 92 1016.1
20260901123108 75 186 0.0 0.0 0.00 0.00 0.00 93 1015.9
20260901122606 75 186 0.0 0.0 0.00 0.00 0.00 93 1015.8
20260901122101 74 188 0.0 0.0 0.00 0.00 0.00 93 1016.2
20260901121555 74 188 0.0 0.0 0.00 0.00 0.00 93 1015.9
20260901121050 74 188 0.0 0.0 0.00 0.00 0.00 94 1015.8
20260901120544 73 188 0.0 0.0 0.00 0.00 0.00 94 1015.8
20260901120041 73 204 0.0 0.0 0.00 0.00 0.00 95 1015.7
20260901115536 73 204 0.0 0.0 0.00 0.00 0.00 95 1015.6
20260901115033 73 204 0.0 0.0 0.00 0.00 0.00 95 1015.5
20260901114528 73 200 0.0 0.0 0.00 0.00 0.00 96 1015.6
20260901114027 73 201 0.0 0.0 0.00 0.00 0.00 96 1015.6
20260901113526 73 201 0.0 0.0 0.00 0.00 0.00 95 1015.5
20260901113022 73 201 0.0 0.0 0.00 0.00 0.00 95 1015.6
20260901112516 73 201 0.0 0.0 0.00 0.00 0.00 95 1015.8
20260901112011 73 201 0.0 0.0 0.00 0.00 0.00 95 1015.6
20260901111510 73 199 0.0 0.0 0.00 0.00 0.00 95 1015.6
20260901111008 73 200 0.0 0.0 0.00 0.00 0.00 95 1015.4
20260901110504 73 202 0.0 0.0 0.00 0.00 0.00 94 1015.3
20260901110000 73 204 0.0 0.0 0.00 0.00 0.00 95 1015.4
20260901105456 72 200 0.0 0.0 0.00 0.00 0.00 96 1015.1
20260901104955 72 200 0.0 0.0 0.00 0.00 0.00 97 1015.2
20260901104451 72 201 0.0 0.0 0.00 0.00 0.00 97 1014.9
20260901103951 72 201 0.0 0.0 0.00 0.00 0.00 97 1015.1
20260901103446 72 201 0.0 0.0 0.00 0.00 0.00 96 1015.1
20260901102942 72 202 0.0 0.0 0.00 0.00 0.00 96 1015.2
20260901102436 73 202 0.0 0.0 0.00 0.00 0.00 96 1015.1
20260901101931 73 202 0.0 0.0 0.00 0.00 0.00 96 1014.9
20260901101426 73 202 0.0 0.0 0.00 0.00 0.00 95 1015.1
20260901100926 73 203 0.0 0.0 0.00 0.00 0.00 95 1015.0
20260901100420 73 203 0.0 0.0 0.00 0.00 0.00 95 1015.1
20260901095914 73 203 0.0 0.0 0.00 0.00 0.00 95 1015.1
20260901095413 73 203 0.0 0.0 0.00 0.00 0.00 94 1015.0
20260901094911 73 203 0.0 0.0 0.00 0.00 0.00 94 1015.0
20260901094406 73 203 0.0 0.0 0.00 0.00 0.00 94 1015.2
20260901093901 74 203 0.0 0.0 0.00 0.00 0.00 93 1014.9
20260901093400 74 203 0.0 0.0 0.00 0.00 0.00 93 1014.9
20260901092856 74 203 0.0 0.0 0.00 0.00 0.00 92 1014.9
20260901092356 74 202 0.0 0.0 0.00 0.00 0.00 92 1015.0
20260901091853 74 204 1.0 1.0 0.00 0.00 0.00 93 1014.9
20260901091353 74 204 0.0 0.0 0.00 0.00 0.00 93 1014.8
20260901090847 74 204 1.0 1.0 0.00 0.00 0.00 92 1014.8
20260901090342 75 205 1.0 1.0 0.00 0.00 0.00 91 1014.9
20260901085838 75 207 1.0 1.0 0.00 0.00 0.00 91 1014.8
20260901085333 75 212 1.0 1.0 0.00 0.00 0.00 91 1014.8
20260901084830 75 218 1.0 1.0 0.00 0.00 0.00 91 1014.6
20260901084326 75 226 2.0 2.0 0.00 0.00 0.00 90 1014.8
20260901083821 75 218 2.0 2.0 0.00 0.00 0.00 90 1014.8
20260901083321 75 228 2.0 2.0 0.00 0.00 0.00 91 1014.6
20260901082819 75 232 1.0 1.0 0.00 0.00 0.00 91 1014.8
20260901082315 75 238 2.0 2.0 0.00 0.00 0.00 90 1014.8
20260901081810 75 218 2.0 2.0 0.00 0.00 0.00 90 1014.7
20260901081309 75 233 2.0 2.0 0.00 0.00 0.00 90 1014.9
20260901080805 75 232 2.0 2.0 0.00 0.00 0.00 90 1014.6
20260901080304 75 222 2.0 2.0 0.00 0.00 0.00 90 1014.7
20260901075758 76 228 1.0 2.0 0.00 0.00 0.00 90 1014.6
20260901075254 76 204 1.0 1.0 0.00 0.00 0.00 89 1014.8
20260901074748 76 224 1.0 2.0 0.00 0.00 0.00 90 1014.7
20260901074243 76 214 1.0 2.0 0.00 0.00 0.00 90 1014.6
20260901073739 76 200 1.0 1.0 0.00 0.00 0.00 89 1014.7
20260901073234 76 226 1.0 1.0 0.00 0.00 0.00 89 1014.6
20260901072729 76 207 1.0 1.0 0.00 0.00 0.00 89 1014.6
20260901072224 76 199 2.0 2.0 0.00 0.00 0.00 88 1014.7
20260901071719 77 200 2.0 2.0 0.00 0.00 0.00 88 1014.6
20260901071219 77 236 2.0 2.0 0.00 0.00 0.00 88 1014.7
20260901070712 77 242 2.0 2.0 0.00 0.00 0.00 87 1014.8
20260901070208 77 197 1.0 1.0 0.00 0.00 0.00 87 1014.7
20260901065707 77 227 2.0 2.0 0.00 0.00 0.00 87 1014.8
20260901065202 76 199 1.0 1.0 0.00 0.00 0.00 88 1014.8
20260901064659 76 232 1.0 1.0 0.00 0.00 0.00 90 1014.8
20260901064155 75 191 0.0 0.0 0.00 0.00 0.00 91 1014.9
20260901063652 75 179 0.0 0.0 0.00 0.00 0.00 92 1014.8
20260901063147 75 197 0.0 0.0 0.00 0.00 0.00 93 1014.9
20260901062643 75 177 0.0 0.0 0.00 0.00 0.00 93 1015.0
20260901062139 75 176 0.0 0.0 0.00 0.00 0.00 93 1015.1
20260901061635 75 180 0.0 0.0 0.00 0.00 0.00 94 1014.9
20260901061134 75 182 0.0 0.0 0.00 0.00 0.00 95 1015.0
20260901060629 75 178 0.0 0.0 0.00 0.00 0.00 95 1014.8
20260901060125 75 177 0.0 0.0 0.00 0.00 0.00 95 1015.1
20260901055620 75 177 0.0 0.0 0.00 0.00 0.00 96 1015.1
20260901055116 75 177 0.0 0.0 0.00 0.00 0.00 96 1015.4
20260901054613 75 177 0.0 0.0 0.00 0.00 0.00 96 1015.2
20260901054109 75 177 0.0 0.0 0.00 0.00 0.00 96 1015.1
20260901053605 75 176 0.0 0.0 0.00 0.00 0.00 96 1014.9
20260901053101 75 176 0.0 0.0 0.00 0.00 0.00 96 1015.1
20260901052600 75 176 0.0 0.0 0.00 0.00 0.00 96 1014.9
20260901052055 75 176 0.0 0.0 0.00 0.00 0.00 96 1014.8
20260901051550 75 176 0.0 0.0 0.00 0.00 0.00 96 1014.9
20260901051049 75 176 0.0 0.0 0.00 0.00 0.00 96 1014.7
20260901050544 75 176 0.0 0.0 0.00 0.00 0.00 96 1015.0
20260901050039 75 176 0.0 0.0 0.00 0.00 0.00 96 1014.7
20260901045534 75 176 0.0 0.0 0.00 0.00 0.00 96 1014.7
20260901045029 75 176 0.0 0.0 0.00 0.00 0.00 96 1014.7
20260901044525 75 176 0.0 0.0 0.00 0.00 0.00 96 1014.9
20260901044020 75 176 0.0 0.0 0.00 0.00 0.00 96 1014.7
20260901043516 76 176 0.0 0.0 0.00 0.00 0.00 96 1014.7
20260901043011 76 176 0.0 0.0 0.00 0.00 0.00 96 1014.6
20260901042511 76 176 0.0 0.0 0.00 0.00 0.00 96 1014.9
20260901042006 76 176 0.0 0.0 0.00 0.00 0.00 96 1014.9
20260901041501 76 176 0.0 0.0 0.00 0.00 0.00 95 1015.0
20260901040955 76 176 0.0 0.0 0.00 0.00 0.00 95 1014.7
20260901040450 76 176 0.0 0.0 0.00 0.00 0.00 95 1014.9
20260901035949 76 176 0.0 0.0 0.00 0.00 0.00 95 1014.9
20260901035448 77 176 0.0 0.0 0.00 0.00 0.00 94 1014.9
20260901034946 77 176 0.0 0.0 0.00 0.00 0.00 94 1015.1
20260901034441 77 176 0.0 0.0 0.00 0.00 0.00 94 1015.0
20260901033936 77 176 0.0 0.0 0.00 0.00 0.00 94 1014.9
20260901033435 77 176 0.0 0.0 0.00 0.00 0.00 93 1015.3
20260901032934 77 176 0.0 0.0 0.00 0.00 0.00 93 1015.3
20260901032434 77 176 0.0 0.0 0.00 0.00 0.00 93 1014.9
20260901031929 77 176 0.0 0.0 0.00 0.00 0.00 93 1015.3
20260901031425 77 176 0.0 0.0 0.00 0.00 0.00 93 1015.1
20260901030924 77 176 0.0 0.0 0.00 0.00 0.00 93 1015.1
20260901030420 77 176 0.0 0.0 0.00 0.00 0.00 93 1015.1
20260901025919 78 176 0.0 0.0 0.00 0.00 0.00 93 1015.0
20260901025414 78 176 0.0 0.0 0.00 0.00 0.00 92 1015.0
20260901024908 78 176 0.0 0.0 0.00 0.00 0.00 92 1015.1
20260901024408 78 176 0.0 0.0 0.00 0.00 0.00 92 1015.2
20260901023907 78 176 0.0 0.0 0.00 0.00 0.00 92 1015.1
20260901023401 78 176 0.0 0.0 0.00 0.00 0.00 91 1015.1
20260901022856 78 176 0.0 0.0 0.00 0.00 0.00 91 1015.1
20260901022353 78 176 0.0 0.0 0.00 0.00 0.00 91 1015.1
20260901021847 78 176 0.0 0.0 0.00 0.00 0.00 91 1014.9
20260901021343 79 176 0.0 0.0 0.00 0.00 0.00 90 1015.3
20260901020837 79 176 0.0 0.0 0.00 0.00 0.00 89 1015.0
20260901020333 79 176 0.0 0.0 0.00 0.00 0.00 88 1014.9
20260901015832 79 176 0.0 0.0 0.00 0.00 0.00 88 1015.0
20260901015329 79 176 0.0 0.0 0.00 0.00 0.00 88 1015.0
20260901014828 79 176 0.0 0.0 0.00 0.00 0.00 87 1015.1
20260901014325 80 176 0.0 0.0 0.00 0.00 0.00 87 1014.9
20260901013820 80 176 0.0 0.0 0.00 0.00 0.00 86 1014.7
20260901013315 80 176 0.0 0.0 0.00 0.00 0.00 86 1014.8
20260901012811 80 176 0.0 0.0 0.00 0.00 0.00 86 1014.8
20260901012306 80 176 0.0 0.0 0.00 0.00 0.00 86 1014.5
20260901011801 80 176 0.0 0.0 0.00 0.00 0.00 85 1014.6
20260901011256 80 176 0.0 0.0 0.00 0.00 0.00 84 1014.5
20260901010755 81 176 0.0 0.0 0.00 0.00 0.00 84 1014.6
20260901010250 81 176 0.0 0.0 0.00 0.00 0.00 83 1014.5
20260901005749 81 176 0.0 0.0 0.00 0.00 0.00 82 1014.2
20260901005244 81 176 0.0 0.0 0.00 0.00 0.00 81 1014.3
20260901004744 82 176 0.0 0.0 0.00 0.00 0.00 81 1014.3
20260901004239 82 176 0.0 0.0 0.00 0.00 0.00 80 1014.2
20260901003733 82 176 0.0 0.0 0.00 0.00 0.00 80 1014.2
20260901003233 82 176 0.0 0.0 0.00 0.00 0.00 79 1014.2
20260901002726 82 176 0.0 0.0 0.00 0.00 0.00 79 1014.3
20260901002222 82 176 0.0 0.0 0.00 0.00 0.00 79 1014.2
20260901001718 82 176 0.0 0.0 0.00 0.00 0.00 79 1014.1
20260901001213 82 176 0.0 0.0 0.00 0.00 0.00 79 1013.9
20260901000708 83 176 0.0 0.0 0.00 0.00 0.00 79 1014.1
20260901000204 83 176 0.0 0.0 0.00 0.00 0.00 79 1013.8
20260831235702 83 176 0.0 0.0 0.00 0.00 0.00 79 1013.9
20260831235158 84 176 0.0 0.0 0.00 0.00 0.00 79 1014.0
20260831234657 84 176 0.0 0.0 0.00 0.00 0.00 76 1014.0
20260831234152 84 176 0.0 0.0 0.00 0.00 0.00 76 1013.7
20260831233648 84 177 0.0 0.0 0.00 0.00 0.00 76 1013.9
20260831233143 84 177 0.0 0.0 0.00 0.00 0.00 76 1014.1
20260831232638 85 177 0.0 0.0 0.00 0.00 0.00 75 1014.2
20260831232134 85 177 0.0 1.0 0.00 0.00 0.00 74 1014.2
20260831231630 86 179 0.0 0.0 0.00 0.00 0.00 74 1014.3
20260831231126 86 176 0.0 0.0 0.00 0.00 0.00 72 1014.0
20260831230621 87 197 0.0 0.0 0.00 0.00 0.00 71 1014.2
20260831230121 87 206 1.0 1.0 0.00 0.00 0.00 67 1014.0
20260831225616 87 222 1.0 2.0 0.00 0.00 0.00 68 1014.5
20260831225111 87 232 1.0 2.0 0.00 0.00 0.00 69 1014.2
20260831224606 87 232 2.0 2.0 0.00 0.00 0.00 70 1014.4
20260831224101 87 174 0.0 0.0 0.00 0.00 0.00 71 1014.3
20260831223557 87 171 2.0 2.0 0.00 0.00 0.00 69 1014.1
20260831223053 87 126 0.0 0.0 0.00 0.00 0.00 71 1014.5
20260831222549 87 166 0.0 0.0 0.00 0.00 0.00 69 1014.1
20260831222048 88 203 2.0 2.0 0.00 0.00 0.00 66 1014.3
20260831221544 88 200 2.0 2.0 0.00 0.00 0.00 67 1014.1
20260831221039 88 198 1.0 1.0 0.00 0.00 0.00 68 1014.2
20260831220534 88 242 3.0 3.0 0.00 0.00 0.00 66 1014.3
20260831220029 88 219 2.0 2.0 0.00 0.00 0.00 65 1014.4
20260831215525 88 189 2.0 2.0 0.00 0.00 0.00 66 1014.4
20260831215021 88 164 0.0 0.0 0.00 0.00 0.00 66 1014.6
20260831214518 89 162 1.0 2.0 0.00 0.00 0.00 66 1014.5
20260831214014 89 190 1.0 1.0 0.00 0.00 0.00 65 1014.4
20260831213510 90 214 1.0 1.0 0.00 0.00 0.00 66 1014.4
20260831213010 91 170 1.0 1.0 0.00 0.00 0.00 63 1014.4
20260831212507 92 173 0.0 1.0 0.00 0.00 0.00 62 1014.4
20260831212001 92 259 3.0 5.0 0.00 0.00 0.00 60 1014.6
20260831211456 91 212 1.0 1.0 0.00 0.00 0.00 64 1014.5
20260831210955 92 184 4.0 5.0 0.00 0.00 0.00 59 1014.7
20260831210450 92 194 2.0 2.0 0.00 0.00 0.00 61 1014.6
20260831205946 92 225 2.0 2.0 0.00 0.00 0.00 60 1014.6
20260831205441 92 221 2.0 2.0 0.00 0.00 0.00 61 1014.8
20260831204937 91 195 1.0 1.0 0.00 0.00 0.00 62 1014.9
20260831204436 91 243 2.0 2.0 0.00 0.00 0.00 60 1014.6
20260831203936 92 227 1.0 2.0 0.00 0.00 0.00 61 1014.7
20260831203430 93 265 3.0 6.0 0.00 0.00 0.00 61 1014.9
20260831202928 92 174 0.0 0.0 0.00 0.00 0.00 63 1014.9
20260831202423 92 203 1.0 1.0 0.00 0.00 0.00 62 1014.7
20260831201918 92 160 2.0 2.0 0.00 0.00 0.00 59 1014.8
20260831201416 93 228 2.0 3.0 0.00 0.00 0.00 62 1015.3
20260831200912 92 202 0.0 0.0 0.00 0.00 0.00 63 1015.0
20260831200408 91 261 3.0 3.0 0.00 0.00 0.00 63 1015.3
20260831195907 91 182 2.0 2.0 0.00 0.00 0.00 61 1015.0
20260831195403 91 174 2.0 2.0 0.00 0.00 0.00 65 1015.4
20260831194859 90 247 1.0 2.0 0.00 0.00 0.00 63 1015.4
20260831194354 90 296 3.0 3.0 0.00 0.00 0.00 65 1015.4
20260831193853 90 284 3.0 3.0 0.00 0.00 0.00 61 1015.6
20260831193348 91 243 1.0 2.0 0.00 0.00 0.00 61 1015.6
20260831192843 91 239 3.0 5.0 0.00 0.00 0.00 61 1015.6
20260831192338 91 194 1.0 1.0 0.00 0.00 0.00 59 1015.9
20260831191834 91 189 2.0 3.0 0.00 0.00 0.00 62 1016.0
20260831191330 90 177 4.0 5.0 0.00 0.00 0.00 62 1015.8
20260831190826 89 233 2.0 2.0 0.00 0.00 0.00 62 1015.9
20260831190325 89 249 4.0 5.0 0.00 0.00 0.00 67 1016.0
20260831185825 89 251 2.0 2.0 0.00 0.00 0.00 65 1015.9
20260831185321 89 246 1.0 2.0 0.00 0.00 0.00 65 1016.2
20260831184820 89 249 3.0 5.0 0.00 0.00 0.00 61 1016.2
20260831184315 89 290 2.0 2.0 0.00 0.00 0.00 64 1016.1
20260831183811 89 237 3.0 5.0 0.00 0.00 0.00 65 1016.4
20260831183310 89 235 3.0 3.0 0.00 0.00 0.00 67 1016.4
20260831182809 88 251 3.0 3.0 0.00 0.00 0.00 66 1016.2
20260831182309 89 263 3.0 3.0 0.00 0.00 0.00 69 1016.4
20260831181805 89 193 1.0 1.0 0.00 0.00 0.00 70 1016.3
20260831181300 88 223 2.0 2.0 0.00 0.00 0.00 65 1016.2
20260831180755 88 240 3.0 3.0 0.00 0.00 0.00 66 1016.6
20260831180249 89 263 5.0 6.0 0.00 0.00 0.00 66 1016.4
20260831175748 89 257 2.0 2.0 0.00 0.00 0.00 64 1016.5
20260831175246 88 227 1.0 2.0 0.00 0.00 0.00 68 1016.6
20260831174746 88 276 3.0 3.0 0.00 0.00 0.00 67 1016.3
20260831174242 89 230 2.0 2.0 0.00 0.00 0.00 67 1016.5
20260831173741 89 231 3.0 3.0 0.00 0.00 0.00 67 1016.3
20260831173235 89 192 2.0 2.0 0.00 0.00 0.00 66 1016.5